[[{"header":{"parameterUnit":"m.s-1","parameterCategory":1,"la1":30.2991,"la2":30.254,"lo1":-89.0895,"lo2":-89.0444,"dy":0.0017,"dx":0.0017,"nx":28,"ny":28,"refTime":"2023-09-26T09:00:00:Z","depth":0,"parameterNumber":2,"parameterNumberName":"U-component_of_WINDS"},"data":[0,0,0,0,0,0,0,0,0,0,0,0,0,0,0,0,0,0,0,0,0,0,0,0,0,0,0,0,0,0,0,0,0,0,0,0,0,0,0,0,0,0,0,0,0,0,0,0,0,0,0,0,0,0,0,0,0,0,-4.9147,-4.9147,0,-4.9161,-4.9162,-4.9162,-4.901,-4.9006,-4.9001,-4.8998,-4.9013,-4.9017,-4.9021,0,0,0,0,0,0,0,0,0,0,0,0,0,-4.8987,-4.8991,-4.9147,-4.9147,-4.9147,-4.9161,-4.9162,-4.9162,-4.9011,-4.9005,-4.9,-4.8996,-4.9011,-4.9016,-4.9022,0,0,0,0,0,0,0,0,0,0,0,0,0,-4.9035,-4.8992,-4.9147,-4.9073,-4.9067,-4.9161,-4.9162,-4.9162,-4.9012,-4.9005,-4.8999,-4.8993,-4.901,-4.9016,-4.9022,-4.9188,0,0,-4.9042,-4.9045,0,0,0,0,0,0,0,0,-4.9032,-4.9041,-4.9084,-4.9079,-4.9072,-4.9077,-4.9111,-4.9171,-4.9013,-4.9033,-4.8997,-4.899,-4.9039,-4.9043,-4.9059,-4.9188,-4.9189,-4.9043,-4.9047,-4.9049,-4.9051,0,0,0,0,0,0,0,-4.9029,-4.9039,-4.9152,-4.9085,-4.9077,-4.904,-4.9039,-4.9121,-4.9071,-4.9031,-4.902,-4.9023,-4.9035,-4.9054,-4.9059,-4.9189,-4.9042,-4.9048,-4.9052,-4.9055,-4.9454,-4.946,0,0,0,0,0,0,-4.9036,-4.9038,-4.9152,-4.9153,-4.9036,-4.9048,-4.9047,-4.9082,-4.907,-4.9062,-4.9029,-4.9016,-4.9046,-4.9051,-4.9059,-4.9251,-4.9049,-4.9055,-4.9059,-4.9447,-4.9455,-4.9462,0,0,0,0,0,0,-4.9033,-4.9048,-4.9151,-4.9092,-4.9103,-4.9057,-4.9097,-4.9086,-4.9104,-4.9068,-4.9059,-4.9057,-4.9041,-4.905,-4.9156,-4.9249,-4.9058,-4.9064,-4.9439,-4.945,-4.9459,-4.9637,0,0,0,0,0,0,-4.9029,-4.9048,-4.911,-4.9095,-4.9106,-4.925,-4.9103,-4.909,-4.9116,-4.91,-4.9093,-4.9085,-4.9037,-4.9148,-4.9163,-4.9255,-4.9069,-4.9431,-4.9444,-4.9456,-4.9623,-4.9652,-4.9677,0,0,0,0,0,-4.9024,-4.916,-4.9114,-4.9129,-4.9184,-4.9255,-4.9262,-4.9203,-4.9124,-4.9186,-4.9163,-4.9086,-4.9237,-4.916,-4.9176,-4.9271,-4.9424,-4.944,-4.9455,-4.9611,-4.9646,-4.9676,0,0,0,0,0,0,-4.9187,-4.9157,-4.9105,-4.924,-4.9252,-4.923,-4.9306,-4.9243,-4.9277,-4.926,-4.9186,-4.9186,-4.9305,-4.9298,-4.9213,-4.943,-4.9317,-4.9336,-4.943,-4.9463,-4.949,-4.9489,-4.9074,0,0,0,0,0,-4.9239,-4.93,-4.927,-4.9392,-4.94,-4.9353,-4.9382,-4.9336,-4.9344,-4.9348,-4.9333,-4.9344,-4.9394,-4.9428,-4.9472,-4.9621,-4.9617,-4.9694,-4.9722,-4.9744,-4.9761,-4.9839,-4.9873,-4.9512,-4.9512,-4.9512,0,0,-4.9346,-4.9337,-4.938,-4.9424,-4.9428,-4.9492,-4.9358,-4.9432,-4.9479,-4.9359,-4.9459,-4.9449,-4.9456,-4.9585,-4.9641,-4.9583,-4.986,-4.9763,-4.9782,-4.9786,-4.9858,-4.9892,-4.9923,-4.9522,-4.9521,-4.9519,0,0,-4.9575,-4.9575,-4.9676,-4.9682,-4.9688,-4.9656,-4.968,-4.9668,-4.9656,-4.9755,-4.9667,-4.9722,-4.9809,-4.9818,-4.9834,-5.0066,-4.9996,-5.0083,-5.0225,-5.0301,-5.033,-5.0354,-5.0436,-5.0467,-5.01,-5.0101,-5.0101,0,-4.9707,-4.9801,-4.9736,-4.9816,-4.9837,-4.9732,-4.9834,-4.9843,-4.9864,-4.9881,-4.9816,-4.9924,-4.9922,-5.005,-5.0107,-5.0124,-5.0149,-5.0083,-5.0331,-5.0355,-5.0377,-5.0455,-5.0486,-5.0111,-5.011,-5.0109,-5.0108,0,-4.9963,-5.003,-5.0111,-5.0133,-5.0164,-5.0255,-5.0203,-5.0242,-5.0193,-5.0168,-5.027,-5.0264,-5.0304,-5.0331,-5.0285,-5.0454,-5.0418,-5.0344,-5.0228,-5.0423,-5.0494,-5.0524,-5.0126,-5.0122,-5.0119,-5.0116,0,0,-5.0295,-5.028,-5.0311,-5.0319,-5.0319,-5.0369,-5.0455,-5.0494,-5.0529,-5.0547,-5.0616,-5.0693,-5.0624,-5.0642,-5.0596,-5.0663,-5.0846,-5.058,-5.0579,-5.0629,-5.1032,-5.1088,-5.1123,-5.08,-5.0806,-5.081,-5.1031,0,-5.0516,-5.0662,-5.0605,-5.0755,-5.0815,-5.0716,-5.0791,-5.0799,-5.0777,-5.0825,-5.0801,-5.0856,-5.0761,-5.0771,-5.0834,-5.0811,-5.0926,-5.0794,-5.0864,-5.0867,-5.0864,-5.116,-5.1219,-5.1428,-5.1059,-5.1063,-5.1067,0,-5.0794,-5.0824,-5.098,-5.0968,-5.0991,-5.1059,-5.109,-5.1138,-5.1144,-5.1124,-5.1145,-5.1083,-5.1166,-5.1052,-5.1165,-5.1077,-5.1102,-5.1095,-5.1102,-5.1105,-5.0978,-5.1171,-5.1494,-5.1525,-5.111,-5.1107,-5.1104,0,-5.1019,-5.1098,-5.1201,-5.1211,-5.1201,-5.1251,-5.1249,-5.1249,-5.1277,-5.1304,-5.1321,-5.1358,-5.1379,-5.1409,-5.1359,-5.1281,-5.1479,-5.1361,-5.1464,-5.1466,-5.151,-5.1508,-5.184,-5.1528,-5.1528,-5.1527,-5.1526,0,-5.1272,-5.1372,-5.1302,-5.1365,-5.1473,-5.1407,-5.1516,-5.1503,-5.1504,-5.1563,-5.148,-5.1537,-5.1468,-5.1519,-5.148,-5.1579,-5.159,-5.1575,-5.1564,-5.1582,-5.1584,-5.1597,-5.1581,-5.1535,-5.1533,-5.1532,-5.153,0,-5.1542,-5.1499,-5.1605,-5.1586,-5.1584,-5.1664,-5.1648,-5.1706,-5.1678,-5.1754,-5.1768,-5.1726,-5.1781,-5.1734,-5.1788,-5.1762,-5.1893,-5.1861,-5.1891,-5.1882,-5.1988,-5.1978,-5.234,-5.2383,-5.2044,-5.2048,-5.2051,0,-5.1706,-5.1779,-5.1769,-5.1802,-5.1805,-5.1861,-5.1888,-5.1826,-5.1858,-5.1871,-5.1927,-5.1975,-5.201,-5.2103,-5.2077,-5.2118,-5.2086,-5.221,-5.2091,-5.2107,-5.2087,-5.2083,-5.2089,-5.2233,-5.2237,-5.2241,-5.2243,0,-5.2001,-5.1976,-5.2018,-5.2054,-5.2089,-5.2114,-5.2132,-5.2165,-5.2101,-5.2141,-5.2197,-5.2224,-5.2278,-5.2327,-5.2359,-5.2356,-5.229,-5.2281,-5.2307,-5.2326,-5.234,-5.2333,-5.1956,-5.2273,-5.227,-5.2268,-5.2266,-5.2265,-5.2221,-5.2282,-5.2284,-5.2334,-5.2341,-5.2361,-5.2414,-5.2393,-5.2438,-5.2478,-5.2439,-5.2506,-5.251,-5.2546,-5.2552,-5.2603,-5.2551,-5.2589,-5.2599,-5.2609,-5.2624,-5.2333,-5.2609,-5.2608,-5.2607,-5.2606,-5.2606,0,-5.2511,-5.2508,-5.2554,-5.2583,-5.2622,-5.2556,-5.2573,-5.261,-5.267,-5.268,-5.2716,-5.278,-5.2827,-5.2805,-5.2845,-5.2891,-5.2862,-5.2904,-5.2899,-5.29,-5.2668,-5.2641,-5.2927,-5.2927,-5.2927,-5.2927,-5.2927,-5.2927,-5.2667,-5.2766,-5.2741,-5.2843,-5.2838,-5.2903,-5.2919,-5.2936,-5.2943,-5.3018,-5.3056,-5.3041,-5.3038,-5.3078,-5.3118,-5.311,-5.3129,-5.3183,-5.3164,-5.2948,-5.2916,-5.2886,-5.286,-5.3187,-5.3188,-5.3391,-5.3393,-5.3394]},{"header":{"parameterUnit":"m.s-1","parameterCategory":1,"la1":30.2991,"la2":30.254,"lo1":-89.0895,"lo2":-89.0444,"dy":0.0017,"dx":0.0017,"nx":28,"ny":28,"refTime":"2023-09-26T09:00:00:Z","depth":0,"parameterNumber":3,"parameterNumberName":"V-component_of_WINDS"},"data":[0,0,0,0,0,0,0,0,0,0,0,0,0,0,0,0,0,0,0,0,0,0,0,0,0,0,0,0,0,0,0,0,0,0,0,0,0,0,0,0,0,0,0,0,0,0,0,0,0,0,0,0,0,0,0,0,0,0,-2.8644,-2.8645,0,-2.8679,-2.8679,-2.8679,-2.8654,-2.8653,-2.8652,-2.8651,-2.8684,-2.8686,-2.8688,0,0,0,0,0,0,0,0,0,0,0,0,0,-2.8554,-2.8556,-2.8644,-2.8645,-2.8645,-2.8678,-2.8679,-2.8679,-2.8654,-2.8653,-2.8651,-2.865,-2.8683,-2.8686,-2.8688,0,0,0,0,0,0,0,0,0,0,0,0,0,-2.8591,-2.8557,-2.8644,-2.8637,-2.8636,-2.8678,-2.8679,-2.868,-2.8654,-2.8653,-2.8651,-2.8649,-2.8683,-2.8685,-2.8688,-2.8739,0,0,-2.8697,-2.8698,0,0,0,0,0,0,0,0,-2.8589,-2.8595,-2.8637,-2.8637,-2.8637,-2.866,-2.8659,-2.87,-2.8655,-2.8647,-2.8651,-2.8649,-2.8677,-2.8681,-2.8691,-2.8741,-2.8742,-2.8697,-2.8699,-2.87,-2.8701,0,0,0,0,0,0,0,-2.8587,-2.8593,-2.8658,-2.8638,-2.8638,-2.863,-2.8634,-2.8667,-2.8671,-2.8648,-2.8646,-2.8651,-2.8677,-2.8688,-2.8691,-2.8743,-2.8697,-2.87,-2.8702,-2.8703,-2.8834,-2.8835,0,0,0,0,0,0,-2.8585,-2.8591,-2.8657,-2.8659,-2.8609,-2.8633,-2.8637,-2.8654,-2.8671,-2.8672,-2.8652,-2.8649,-2.8684,-2.8688,-2.8692,-2.8751,-2.87,-2.8703,-2.8705,-2.8832,-2.8834,-2.8836,0,0,0,0,0,0,-2.8583,-2.8591,-2.8655,-2.8625,-2.8632,-2.8637,-2.8656,-2.8656,-2.8667,-2.8674,-2.8674,-2.8663,-2.8683,-2.8688,-2.8727,-2.8752,-2.8704,-2.8707,-2.883,-2.8833,-2.8835,-2.887,0,0,0,0,0,0,-2.8581,-2.8591,-2.8611,-2.8625,-2.8634,-2.8691,-2.8658,-2.8658,-2.8672,-2.8669,-2.8684,-2.8685,-2.8682,-2.8723,-2.873,-2.8755,-2.8709,-2.8828,-2.8831,-2.8834,-2.8867,-2.8874,-2.888,0,0,0,0,0,-2.8578,-2.862,-2.8612,-2.862,-2.866,-2.8692,-2.8697,-2.8693,-2.8674,-2.8694,-2.8698,-2.8684,-2.8748,-2.8727,-2.8735,-2.8761,-2.8826,-2.883,-2.8834,-2.8864,-2.8873,-2.888,0,0,0,0,0,0,-2.8609,-2.8622,-2.8613,-2.8662,-2.8676,-2.8688,-2.8713,-2.8703,-2.8723,-2.8719,-2.8712,-2.8716,-2.8756,-2.8763,-2.8739,-2.881,-2.8784,-2.879,-2.8804,-2.8812,-2.8819,-2.8816,-2.8712,0,0,0,0,0,-2.8621,-2.8648,-2.8657,-2.8699,-2.8707,-2.8709,-2.8723,-2.8718,-2.8733,-2.8739,-2.8746,-2.876,-2.8783,-2.8798,-2.882,-2.8868,-2.887,-2.889,-2.8896,-2.8901,-2.8906,-2.8929,-2.8938,-2.8849,-2.8849,-2.8849,0,0,-2.8647,-2.8658,-2.8675,-2.8705,-2.8716,-2.8742,-2.8714,-2.8744,-2.8762,-2.8743,-2.878,-2.8786,-2.8801,-2.8844,-2.8863,-2.885,-2.8931,-2.8906,-2.891,-2.8912,-2.8934,-2.8943,-2.895,-2.8852,-2.8851,-2.8851,0,0,-2.8708,-2.8719,-2.8754,-2.8765,-2.8781,-2.8782,-2.879,-2.8803,-2.8806,-2.8843,-2.8829,-2.8851,-2.8891,-2.8902,-2.8912,-2.8975,-2.8962,-2.8982,-2.9015,-2.9038,-2.9045,-2.9051,-2.9071,-2.9079,-2.8987,-2.8987,-2.8987,0,-2.8738,-2.8778,-2.8773,-2.8803,-2.8816,-2.8799,-2.8833,-2.8844,-2.8867,-2.8875,-2.8861,-2.891,-2.8919,-2.8963,-2.8978,-2.8988,-2.8996,-2.898,-2.9045,-2.9051,-2.9056,-2.9075,-2.9083,-2.8989,-2.8989,-2.8989,-2.8988,0,-2.8813,-2.884,-2.8866,-2.8888,-2.8904,-2.8936,-2.8935,-2.8951,-2.8945,-2.8947,-2.8983,-2.8993,-2.9016,-2.9026,-2.9021,-2.9069,-2.9061,-2.9046,-2.9019,-2.9067,-2.9085,-2.9092,-2.8992,-2.8991,-2.8991,-2.899,0,0,-2.8894,-2.8912,-2.8921,-2.893,-2.8946,-2.8966,-2.8997,-2.9019,-2.9032,-2.9048,-2.9072,-2.9105,-2.9091,-2.9103,-2.9098,-2.9119,-2.9165,-2.9101,-2.9101,-2.9111,-2.9216,-2.9227,-2.9235,-2.9157,-2.9158,-2.9159,-2.9214,0,-2.8954,-2.9007,-2.9003,-2.9052,-2.9076,-2.906,-2.9086,-2.9098,-2.91,-2.912,-2.9122,-2.9146,-2.9126,-2.9133,-2.9152,-2.9155,-2.9186,-2.9151,-2.9178,-2.9179,-2.9173,-2.9245,-2.9256,-2.9308,-2.9222,-2.9223,-2.9224,0,-2.9031,-2.9049,-2.9101,-2.9111,-2.9121,-2.9144,-2.9163,-2.9183,-2.9195,-2.9195,-2.9208,-2.9199,-2.9228,-2.9201,-2.924,-2.9217,-2.9227,-2.923,-2.9232,-2.9233,-2.9203,-2.9246,-2.9324,-2.9331,-2.9235,-2.9234,-2.9233,0,-2.9083,-2.9119,-2.9155,-2.9163,-2.9176,-2.9193,-2.9199,-2.921,-2.9222,-2.9239,-2.9246,-2.9266,-2.9276,-2.9291,-2.9287,-2.9268,-2.9326,-2.9299,-2.9325,-2.9325,-2.9337,-2.9336,-2.9416,-2.9346,-2.9346,-2.9346,-2.9346,0,-2.9149,-2.9181,-2.9178,-2.9199,-2.9234,-2.9228,-2.9262,-2.9266,-2.9276,-2.9297,-2.9284,-2.9304,-2.9299,-2.9318,-2.9315,-2.9346,-2.9351,-2.9351,-2.935,-2.9351,-2.9351,-2.9357,-2.9353,-2.9348,-2.9348,-2.9347,-2.9347,0,-2.9212,-2.9212,-2.9249,-2.9258,-2.9261,-2.9285,-2.9293,-2.9312,-2.9313,-2.934,-2.9345,-2.9346,-2.9368,-2.9366,-2.9391,-2.9389,-2.9427,-2.9422,-2.9423,-2.9421,-2.9446,-2.9443,-2.9531,-2.9542,-2.9467,-2.9468,-2.9468,0,-2.9254,-2.9278,-2.9289,-2.9302,-2.9309,-2.9331,-2.9343,-2.9338,-2.9352,-2.9366,-2.9384,-2.9404,-2.942,-2.9456,-2.9458,-2.9476,-2.9471,-2.95,-2.9473,-2.9474,-2.9469,-2.9467,-2.9468,-2.9505,-2.9506,-2.9507,-2.9508,0,-2.9327,-2.9325,-2.9344,-2.9362,-2.9377,-2.9391,-2.9404,-2.9416,-2.9411,-2.9427,-2.9449,-2.9461,-2.9486,-2.9506,-2.9523,-2.9528,-2.9516,-2.9516,-2.9523,-2.9524,-2.9522,-2.9521,-2.9435,-2.9514,-2.9513,-2.9513,-2.9512,-2.9512,-2.9379,-2.9399,-2.9409,-2.943,-2.9439,-2.9451,-2.9469,-2.9471,-2.949,-2.9509,-2.9505,-2.9529,-2.9539,-2.956,-2.9567,-2.9585,-2.9574,-2.9584,-2.9587,-2.9589,-2.9591,-2.9521,-2.9589,-2.9588,-2.9588,-2.9588,-2.9588,0,-2.945,-2.9456,-2.9475,-2.9492,-2.9508,-2.9496,-2.9509,-2.9523,-2.9545,-2.9555,-2.9571,-2.9595,-2.9614,-2.9617,-2.9635,-2.9649,-2.9644,-2.9653,-2.9651,-2.9652,-2.9601,-2.9592,-2.9657,-2.9657,-2.9657,-2.9657,-2.9657,-2.9657,-2.9489,-2.952,-2.9519,-2.9555,-2.956,-2.9583,-2.9591,-2.9602,-2.961,-2.9637,-2.9653,-2.9655,-2.9662,-2.9679,-2.9696,-2.9696,-2.9702,-2.9714,-2.9712,-2.9663,-2.9656,-2.965,-2.9642,-2.9716,-2.9716,-2.9762,-2.9762,-2.9763]}]]